Historyczne dane pomiarowe

Dodano dane terminowe – wersja testowa.

Dane z okresu 1951-2019

Wersja bazy: 1.34 [2019-03-16, lista zmian], aktualizacja planowana na 2019-04-15

Dane meteo z obszaru Polski uzyskane na podstawie danych udostępnionych przez Instytut Meteorologii i Gospodarki Wodnej – Państwowy Instytut Badawczy.

 

Wybierz Datę:    

       

TemperaturaWilgotnośćWiatrCiśnienieOpadyŚniegCzas trwania zjawisk
 Stacja t tx tn tng RH VA  wxwx mslp ppp RRR   cm mm wxwxwxwxwxwxwx
2019-07-25 17.2 25.9 8.3--- 2.0 0.3---- 0.0------------
2019-07-24 18.4 24.0 13.9--- 6.3 0.7---- 0.2------------
2019-07-23 16.4 19.7 14.5--- 8.0 0.3---- 0.8------------
2019-07-22 17.6 24.2 12.3--- 5.7 0.3---- 0.3------------
2019-07-21 18.0 28.4 11.7--- 6.3 1.0---- 18.2------------
2019-07-20 17.2 25.9 11.3--- 6.3 0.7---- 2.9------------
2019-07-19 14.5 24.9 4.0--- 5.0 0.7---- 1.6------------
2019-07-18 13.3 21.2 3.1--- 3.7 0.7---- 0.0------------
2019-07-17 14.1 20.4 6.2--- 3.3 1.7---- 0.0------------
2019-07-16 13.1 22.0 3.3--- 3.0 1.3---- 0.0------------
2019-07-15 13.2 20.3 6.0--- 5.0 0.7---- 0.0------------
2019-07-14 14.2 17.9 11.7--- 7.0 0.7---- 3.1------------
2019-07-13 14.7 18.7 10.6--- 7.7 0.3---- 27.8------------
2019-07-12 12.1 21.2 2.8--- 6.7 0.3---- 1.0------------
2019-07-11 12.5 16.2 8.2--- 5.3 0.7---- 3.5------------
2019-07-10 12.7 18.4 8.1--- 6.7 1.7---- 0.7------------
2019-07-09 11.4 18.2 1.3--- 5.0 1.3---- 0.0------------
2019-07-08 12.3 17.7 5.2--- 6.0 1.7---- 0.0------------
2019-07-07 18.8 25.2 11.7--- 5.0 2.3---- 0.0------------
2019-07-06 18.9 26.4 10.3--- 3.3 0.7---- 0.0------------
2019-07-05 14.0 23.4 2.5--- 7.3 1.7---- 0.0------------
2019-07-04 13.4 22.4 1.4--- 0.7 1.0---- 0.0------------
2019-07-03 15.2 21.7 6.3--- 1.0 1.7---- 0.0------------
2019-07-02 20.9 25.4 15.6--- 4.3 1.7---- 0.0------------
2019-07-01 22.8 33.3 15.0--- 3.3 2.0---- 1.4------------
2019-06-30 20.3 31.9 6.8--- 0.0 1.0---- 0.0------------
2019-06-29 18.3 24.8 9.6--- 1.3 0.7---- 0.0------------
2019-06-28 14.8 21.6 6.2--- 4.3 1.3---- 0.0------------
2019-06-27 22.6 27.3 16.8--- 2.0 2.0---- 0.0------------
2019-06-26 23.0 31.8 12.8--- 0.7 0.7---- 0.0------------
2019-06-25 20.1 29.3 10.1--- 3.7 1.0---- 0.0------------
2019-06-24 19.5 22.2 16.1--- 5.0 1.7---- 0.0------------
2019-06-23 18.4 21.6 15.0--- 7.3 2.0---- 0.5------------
2019-06-22 17.1 22.0 11.2--- 6.0 0.7---- 0.0------------
2019-06-21 19.4 24.9 15.0--- 5.3 1.0---- 1.2------------
2019-06-20 18.8 24.3 14.8--- 6.3 0.7---- 0.0------------
2019-06-19 18.2 26.8 12.8--- 7.7 0.7---- 4.5------------
2019-06-18 16.2 23.3 7.2--- 2.7 1.3---- 0.0------------
2019-06-17 16.5 19.4 14.6--- 6.0 1.0---- 0.2------------
2019-06-16 20.2 28.2 12.8--- 5.3 1.7---- 28.7------------
2019-06-15 22.3 31.9 14.1--- 4.3 0.7---- 0.0------------
2019-06-14 22.1 28.2 13.6--- 3.0 1.3---- 0.0------------
2019-06-13 22.5 31.6 12.4--- 1.3 0.7---- 0.0------------
2019-06-12 21.3 29.8 9.8--- 0.7 1.0---- 0.0------------
2019-06-11 20.8 29.9 9.1--- 0.7 1.0---- 0.0------------
2019-06-10 20.3 29.8 11.7--- 3.7 0.3---- 0.0------------
2019-06-09 18.3 24.2 11.7--- 2.3 1.7---- 0.0------------
2019-06-08 17.2 26.3 9.7--- 4.3 0.3---- 0.0------------
2019-06-07 17.9 25.8 8.8--- 5.3 1.0---- 0.3------------
2019-06-06 15.9 23.8 7.8--- 3.3 0.7---- 3.5------------
2019-06-05 17.5 28.8 7.7--- 3.3 0.7---- 0.0------------
2019-06-04 16.8 25.4 6.9--- 3.0 1.0---- 0.0------------
2019-06-03 16.1 24.7 5.8--- 1.3 1.0---- 0.0------------
2019-06-02 15.7 23.3 8.6--- 4.0 1.3---- 0.0------------
2019-06-01 13.2 21.3 4.0--- 4.3 1.0---- 2.0------------
2019-05-31 11.9 17.8 6.5--- 4.7 0.7---- 0.0------------
2019-05-30 7.6 8.7 6.4--- 8.0 1.3---- 8.5------------
2019-05-29 10.7 14.4 8.2--- 8.0 2.0---- 2.6------------
2019-05-28 14.4 19.2 9.6--- 7.0 1.0---- 3.9------------
2019-05-27 14.4 22.3 4.9--- 5.7 1.0---- 0.0------------
97.3 ms

 

Źródłem pochodzenia danych jest Instytut Meteorologii i Gospodarki Wodnej – Państwowy Instytut Badawczy. Dane Instytutu Meteorologii i Gospodarki Wodnej – Państwowego Instytutu Badawczego zostały przetworzone.

Dane źródłowe można odnaleźć na stronie https://dane.imgw.pl